Vorticity
14 6 10 -3 13 16 14 14 13 11 6 5 9 11 9 10 10 12 8 10 14 11 9 7 7 8 8 8 9 11 12 10 10 12 12 10 9 10 13 10 7 8 5
11 16 8 10 2 6 9 3 -3 -0 10 15 19 15 14 12 9 7 9 9 13 9 9 11 8 10 7 2 6 11 16 15 13 10 10 13 14 13 11 10 13 5 6
13 9 5 5 7 7 7 4 8 10 9 12 9 4 2 2 11 11 14 16 15 12 -2 2 11 8 6 10 10 5 5 12 15 18 15 17 11 12 9 13 14 14 10
3 4 6 7 6 6 6 7 10 13 8 9 9 12 9 8 9 13 20 27 14 2 9 4 -0 13 -1 8 13 16 10 2 8 13 16 16 14 12 10 4 3 9 8
6 5 7 5 8 8 9 14 6 5 12 16 12 7 12 12 9 9 12 8 -4 -7 -10 -4 -10 2 -1 -1 6 7 3 4 9 12 11 11 13 19 16 14 7 8 7
1 24 1 16 7 10 6 -4 2 9 7 11 10 9 9 14 6 7 8 12 10 2 -0 -2 12 7 4 5 1 0 -1 6 10 11 11 11 11 11 10 11 12 13 9
34 6 -23 36 4 12 10 9 3 -4 1 1 2 7 9 10 12 8 7 14 5 10 12 7 -4 8 1 6 -1 3 1 8 12 15 15 13 11 11 10 8 7 8 7
-10 -14 21 6 2 2 5 -5 13 11 12 7 5 1 9 7 0 8 10 9 18 9 5 -1 23 -1 -2 10 4 7 8 15 14 13 13 12 12 10 9 8 9 15 12
25 5 3 13 7 6 -2 1 5 18 12 12 14 16 10 2 4 4 12 17 13 0 6 0 12 10 5 7 12 13 16 13 12 11 12 12 12 12 11 10 10 11 7
-8 18 8 13 -4 1 -23 1 11 6 11 22 13 15 14 12 9 13 21 9 4 8 7 7 19 7 12 8 9 11 14 14 13 14 14 13 14 14 13 13 14 11 10
23 24 23 5 -4 1 -12 22 14 15 3 17 7 13 16 21 18 21 9 9 18 11 20 12 13 8 8 10 11 16 16 14 13 15 13 13 12 11 13 14 12 7 9
22 7 -1 -2 -2 -4 4 8 22 7 9 11 11 14 20 14 15 25 8 27 19 11 13 10 7 8 10 9 14 16 17 14 13 11 9 8 7 8 10 11 14 16 15
5 8 -20 8 -1 4 9 8 12 9 8 9 13 15 16 12 6 12 20 10 20 17 8 7 5 7 7 14 20 18 10 10 10 9 9 7 9 10 10 10 10 11 14
4 -10 -8 6 2 -9 15 8 8 12 15 14 13 15 17 9 11 7 9 28 10 9 6 6 5 7 18 17 11 8 9 9 10 10 10 9 8 8 11 14 14 13 11
-15 -3 26 -1 5 15 9 14 16 18 17 16 16 11 6 12 -1 15 22 6 5 4 7 9 10 16 15 9 9 10 13 14 13 10 7 9 11 14 17 17 20 18 15
18 6 27 0 12 16 5 19 13 25 17 8 9 22 17 -6 20 7 3 4 5 7 8 15 10 14 10 8 17 16 14 9 7 10 13 19 22 23 24 22 21 20 21
-9 -1 21 15 13 14 11 21 14 25 16 19 19 24 -2 8 7 8 5 2 1 10 11 12 13 9 12 21 12 8 8 10 16 21 22 19 18 18 17 17 16 17 18
4 3 14 -14 18 11 22 22 26 10 12 28 10 5 25 3 16 1 4 4 8 12 11 12 11 20 15 8 9 12 18 23 20 18 15 15 15 15 15 13 12 10 11
14 8 14 12 4 16 28 20 22 26 21 10 22 0 12 8 3 4 6 10 12 12 10 15 18 10 8 10 20 27 18 12 12 12 10 12 13 13 15 19 18 17 14
6 4 8 11 15 27 24 23 23 19 13 8 15 5 6 4 7 7 12 11 12 8 16 14 12 10 8 24 26 16 14 12 7 10 12 14 18 20 19 12 10 13 19
1 15 11 11 24 25 29 20 14 17 -3 6 -2 5 8 7 11 13 9 13 9 14 13 11 8 10 23 26 15 12 8 11 13 14 17 19 19 20 25 14 9 12 14
14 13 12 19 29 28 13 5 4 3 12 3 7 8 9 13 12 10 13 9 14 12 11 9 11 17 30 17 11 13 15 17 20 24 23 19 18 18 20 19 17 15 14
13 15 12 32 25 13 7 10 14 4 7 8 10 11 14 12 10 12 10 13 12 11 10 7 11 34 21 11 14 12 13 20 25 27 19 16 17 17 14 14 18 21 19
23 17 33 25 18 10 8 9 8 7 9 10 11 13 12 11 11 11 12 12 12 12 9 11 24 24 13 15 9 14 13 18 27 26 14 11 12 12 12 17 22 25 23
18 30 26 16 7 9 11 7 7 9 10 12 13 12 9 10 12 11 12 10 15 13 7 11 28 16 12 9 10 9 12 12 10 14 21 25 21 18 16 17 23 26 26
26 31 12 1 11 10 6 8 11 10 11 14 12 10 8 10 13 10 11 6 18 14 10 19 22 10 12 8 11 12 13 17 16 15 15 22 31 23 16 13 20 15 17
Height
3127 3127 3123 3119 3117 3115 3113 3112 3109 3107 3105 3103 3100 3097 3093 3091 3089 3087 3081 3080 3078 3078 3078 3075 3070 3068 3067 3067 3066 3065 3065 3065 3062 3059 3060 3059 3059 3058 3060 3060 3060 3062 3062
3123 3121 3119 3116 3114 3112 3109 3107 3105 3101 3097 3097 3092 3090 3088 3084 3080 3078 3074 3071 3072 3069 3066 3065 3063 3062 3060 3059 3056 3053 3052 3053 3052 3048 3047 3046 3049 3048 3045 3047 3049 3051 3052
3119 3116 3114 3112 3109 3108 3106 3103 3099 3095 3089 3087 3088 3082 3080 3082 3079 3074 3069 3063 3062 3058 3057 3057 3055 3052 3050 3050 3049 3046 3043 3040 3040 3040 3038 3035 3033 3033 3035 3034 3037 3038 3040
3116 3114 3111 3107 3104 3101 3098 3098 3095 3092 3087 3081 3078 3081 3074 3070 3070 3069 3064 3059 3055 3050 3046 3045 3044 3042 3040 3041 3040 3039 3036 3033 3031 3029 3029 3027 3025 3021 3019 3023 3025 3027 3029
3114 3111 3108 3106 3102 3099 3094 3092 3091 3089 3086 3081 3075 3070 3071 3066 3065 3062 3058 3055 3051 3046 3043 3039 3037 3034 3032 3030 3028 3028 3027 3026 3023 3021 3019 3017 3015 3015 3012 3007 3010 3012 3016
3110 3107 3106 3101 3098 3095 3089 3088 3085 3081 3078 3074 3070 3065 3060 3060 3054 3053 3050 3047 3043 3040 3035 3031 3028 3026 3025 3023 3020 3018 3016 3015 3013 3011 3009 3007 3005 3004 3003 3001 2999 2999 3000
3105 3101 3099 3096 3092 3089 3086 3082 3076 3069 3065 3063 3060 3055 3050 3046 3047 3044 3038 3035 3030 3028 3025 3021 3017 3015 3014 3012 3010 3007 3006 3003 3001 2999 2997 2995 2993 2993 2993 2992 2989 2988 2989
3103 3099 3096 3091 3087 3082 3079 3077 3072 3067 3063 3056 3050 3046 3042 3037 3034 3032 3028 3023 3023 3017 3012 3009 3006 3005 3002 3000 2998 2996 2994 2991 2988 2985 2984 2982 2981 2981 2981 2980 2980 2977 2976
3099 3094 3090 3087 3081 3076 3071 3067 3063 3060 3055 3050 3045 3039 3034 3028 3023 3019 3014 3011 3009 3005 2999 2998 2995 2993 2992 2989 2986 2983 2980 2977 2975 2972 2970 2969 2969 2969 2969 2968 2969 2968 2962
3093 3090 3084 3079 3074 3069 3065 3059 3055 3049 3046 3040 3034 3029 3025 3019 3014 3008 3003 2999 2996 2992 2990 2987 2986 2983 2981 2978 2975 2972 2968 2965 2963 2961 2958 2957 2956 2955 2955 2955 2956 2956 2955
3088 3083 3078 3072 3065 3061 3057 3051 3043 3037 3033 3029 3022 3019 3014 3009 3005 2999 2993 2989 2985 2984 2982 2979 2976 2973 2970 2968 2963 2959 2955 2952 2950 2949 2947 2945 2945 2943 2943 2943 2943 2943 2944
3081 3077 3071 3065 3058 3052 3047 3041 3033 3026 3020 3015 3009 3005 3001 2997 2993 2989 2983 2980 2978 2975 2972 2968 2965 2962 2959 2954 2949 2945 2942 2939 2937 2936 2934 2932 2932 2931 2930 2930 2931 2931 2933
3073 3068 3063 3056 3049 3044 3038 3031 3024 3015 3008 3001 2995 2991 2989 2986 2982 2978 2975 2972 2969 2965 2962 2958 2955 2951 2947 2942 2937 2933 2930 2927 2924 2922 2920 2919 2918 2917 2918 2918 2917 2918 2918
3067 3061 3055 3047 3040 3035 3027 3020 3014 3005 2996 2988 2983 2978 2977 2974 2972 2969 2967 2963 2960 2956 2953 2949 2945 2940 2935 2930 2925 2921 2917 2914 2911 2908 2906 2904 2902 2901 2901 2902 2901 2902 2902
3056 3052 3046 3038 3032 3024 3017 3010 3003 2994 2986 2980 2975 2971 2967 2966 2964 2960 2957 2955 2952 2948 2943 2939 2934 2928 2923 2919 2914 2908 2904 2900 2896 2894 2891 2889 2887 2886 2884 2883 2884 2885 2885
3047 3041 3034 3029 3021 3014 3006 2998 2991 2984 2977 2972 2968 2965 2962 2959 2956 2954 2950 2947 2943 2938 2933 2928 2923 2917 2913 2908 2902 2896 2891 2887 2883 2879 2876 2874 2871 2869 2868 2867 2867 2869 2869
3037 3031 3023 3018 3010 3003 2994 2987 2980 2974 2969 2965 2961 2958 2955 2953 2951 2948 2943 2939 2935 2930 2924 2919 2913 2907 2902 2896 2890 2884 2878 2873 2869 2864 2860 2858 2856 2855 2854 2854 2854 2854 2855
3027 3022 3015 3007 3001 2994 2985 2977 2971 2966 2963 2959 2956 2953 2949 2947 2943 2940 2936 2932 2927 2921 2915 2909 2903 2896 2890 2885 2878 2871 2864 2859 2855 2852 2849 2845 2844 2843 2842 2840 2839 2839 2841
3020 3013 3005 2997 2989 2980 2972 2966 2962 2959 2956 2953 2950 2947 2944 2941 2937 2933 2928 2924 2917 2912 2906 2899 2892 2885 2880 2874 2866 2858 2852 2847 2843 2841 2837 2834 2832 2832 2831 2828 2826 2826 2827
3009 3002 2995 2987 2978 2970 2963 2959 2955 2951 2949 2948 2947 2943 2939 2935 2930 2925 2920 2915 2909 2902 2896 2890 2884 2877 2869 2862 2855 2849 2843 2838 2833 2829 2826 2823 2820 2818 2818 2817 2816 2814 2816
3000 2993 2984 2977 2969 2961 2956 2953 2951 2948 2945 2944 2941 2938 2933 2928 2923 2917 2912 2906 2900 2893 2887 2881 2876 2868 2860 2852 2847 2842 2836 2830 2823 2819 2815 2812 2810 2807 2805 2805 2805 2806 2808
2991 2982 2974 2968 2960 2955 2952 2950 2946 2943 2941 2939 2935 2931 2926 2921 2915 2910 2905 2899 2892 2885 2879 2873 2868 2861 2852 2846 2841 2836 2830 2823 2815 2809 2806 2803 2801 2798 2797 2796 2796 2796 2796
2981 2973 2967 2960 2955 2951 2948 2946 2943 2939 2936 2932 2928 2923 2919 2914 2909 2903 2897 2891 2885 2878 2873 2865 2858 2852 2846 2841 2836 2830 2824 2816 2808 2802 2799 2796 2794 2792 2791 2789 2788 2787 2786
2973 2966 2959 2954 2951 2946 2944 2941 2937 2934 2930 2926 2921 2917 2912 2908 2903 2896 2890 2884 2878 2872 2866 2859 2851 2845 2841 2836 2831 2825 2819 2812 2805 2800 2795 2792 2789 2786 2784 2782 2780 2778 2777
2964 2957 2953 2949 2945 2942 2939 2936 2932 2928 2923 2919 2915 2910 2906 2901 2896 2891 2884 2879 2873 2866 2858 2853 2847 2841 2838 2833 2828 2822 2817 2811 2805 2798 2793 2788 2785 2782 2780 2778 2776 2774 2772
2956 2951 2948 2945 2941 2938 2934 2931 2927 2922 2918 2914 2909 2905 2900 2895 2890 2885 2880 2875 2869 2863 2856 2849 2843 2840 2836 2831 2827 2823 2817 2812 2805 2799 2794 2788 2782 2780 2779 2777 2775 2774 2774